Date,TemperatureHighF,TemperatureAvgF,TemperatureLowF,DewpointHighF,DewpointAvgF,DewpointLowF,HumidityHigh,HumidityAvg,HumidityLow,PressureMaxIn,PressureMinIn,WindSpeedMaxMPH,WindSpeedAvgMPH,GustSpeedMaxMPH,PrecipitationSumIn
2013-10-4,58.0,51.4,43.7,51.3,47.6,42.6,97,87,74,30.47,30.33,5,0,9,0.01
2013-10-5,66.6,58.3,53.9,55.2,52.1,47.9,92,80,61,30.35,30.12,4,1,10,0.00
2013-10-6,72.5,60.4,50.1,58.7,52.5,49.2,98,78,46,30.11,29.76,6,1,14,0.04
2013-10-7,60.0,55.8,53.1,54.3,51.6,47.7,95,86,65,29.89,29.77,7,2,16,0.22
2013-10-8,57.8,53.2,47.8,50.7,46.8,44.3,92,79,66,30.08,29.87,9,4,20,0.00
2013-10-9,59.5,51.0,43.6,48.5,44.4,41.5,93,79,59,30.12,29.92,7,1,9,0.09
2013-10-10,56.6,51.7,46.0,49.5,46.8,43.8,93,84,71,30.05,29.90,12,1,12,1.17
2013-10-11,54.3,49.3,42.8,48.5,45.6,41.4,96,87,78,30.13,30.04,8,1,8,0.00
2013-10-12,55.7,50.8,45.0,49.5,46.9,43.3,95,87,76,30.20,30.05,14,1,14,0.00
2013-10-13,56.3,49.5,43.3,49.5,45.2,41.4,95,85,71,30.36,30.20,7,1,10,0.00
2013-10-14,58.6,49.4,42.6,50.3,45.8,41.1,96,88,72,30.42,30.35,9,1,9,0.01
2013-10-15,55.2,49.8,44.8,50.5,47.4,43.7,97,92,81,30.38,30.17,11,1,11,0.00
2013-10-16,58.5,50.7,44.7,52.7,48.3,43.9,98,92,80,30.19,30.13,10,1,10,0.01
2013-10-17,53.8,48.1,42.9,51.1,46.9,42.1,99,96,88,30.27,30.18,9,1,9,0.02
2013-10-18,50.1,46.7,43.3,48.7,46.2,43.0,100,98,93,30.25,30.14,8,1,8,0.00
2013-10-19,51.1,48.2,45.8,49.4,47.6,45.6,100,98,93,30.19,30.14,9,0,9,0.00
2013-10-20,51.7,49.6,47.9,49.1,48.2,47.1,100,95,90,30.20,30.13,7,1,7,0.00
2013-10-21,53.3,49.3,47.7,50.5,48.6,47.4,99,97,90,30.17,30.09,7,0,7,0.00
2013-10-22,52.4,47.8,44.6,51.4,47.5,44.3,100,99,93,30.12,30.02,10,1,10,0.01
2013-10-23,56.1,48.0,42.3,52.0,46.9,41.9,100,96,85,30.04,29.96,9,1,9,0.01
2013-10-24,53.7,48.2,43.9,50.8,47.0,43.4,99,96,88,30.09,30.00,9,1,9,0.02
2013-10-25,52.4,49.1,44.5,50.4,48.0,44.2,100,96,90,30.32,30.09,8,0,8,0.01
2013-10-26,51.7,51.2,49.3,49.8,49.1,47.4,95,93,91,30.32,30.30,8,1,8,0.00
2013-10-27,61.6,53.8,49.0,52.5,48.0,35.3,97,82,46,30.14,29.91,6,1,14,0.11
2013-10-28,59.7,51.2,43.4,43.2,37.7,33.1,80,61,37,30.03,29.91,10,1,10,0.00
2013-10-29,58.2,47.1,38.5,41.2,38.0,34.6,89,72,45,30.00,29.93,8,0,8,0.00
2013-10-30,54.3,48.1,41.4,47.8,42.7,38.1,98,82,63,30.09,30.00,12,1,12,0.20
2013-10-31,51.6,50.1,48.0,50.5,49.2,47.0,98,97,95,30.23,30.05,5,0,6,0.27